Вернуться в каталог

THORAD AGENA D DEB

АктивенPO
NORAD 4912·DEBRIS·🇺🇸 United States

Запущен Apr 8, 1970 с Vandenberg Space Force Base

Loading…

Ближайшие Пролёты

TLE

Source: Space-Track
1 04912U 70025FJ  26223.80467582  .00001318  00000-0  56124-3 0  9999
2 04912  99.7255 351.2997 0037746 146.7231 213.6330 14.26825833862020

Отслеживайте THORAD AGENA D DEB в реальном времени с AllMySat

Download on the App Store